Regional Weather Roundup
Issued by NWS

Home | Current Version | Previous Version | Text Only | Print | Product List | Glossary Off
Versions: 1 2 3 4 5 6 7 8 9 10 11 12 13 14 15 16 17 18 19 20 21 22 23 24 25 26 27 28 29 30 31 32 33 34 35 36 37 38 39 40 41 42 43 44 45 46 47 48 49 50

000
ASUS45 KPSR 242210
RWRAZ

ARIZONA HOURLY REGIONAL WEATHER ROUNDUP
NATIONAL WEATHER SERVICE PHOENIX AZ
300 PM MST MON APR 24 2017

NOTE: FAIR INDICATES FEW OR NO CLOUDS BELOW 12,000 FEET WITH NO
SIGNIFICANT WEATHER AND/OR OBSTRUCTIONS TO VISIBILITY.

AZZ001>003-036-242300-
NORTHWEST ARIZONA

CITY           SKY/WX    TMP DP  RH WIND       PRES   REMARKS
BULLHEAD CITY  MOSUNNY   88  32  13 SW17G32   29.62S
KINGMAN        PTSUNNY   77  25  14 SW25G35   29.75F
$$

AZZ004>008-015-016-018-242300-
NORTH CENTRAL ARIZONA

CITY           SKY/WX    TMP DP  RH WIND       PRES   REMARKS
GRAND CANYON   CLOUDY    65  21  18 SW21G37   29.83F
WILLIAMS       PTSUNNY   64  21  19 SW20G32   29.88F
PRESCOTT       CLOUDY    71  20  14 SW15G28   29.85R
FLAGSTAFF      PTSUNNY   63  18  17 SW31G46   29.86F
PAYSON         CLOUDY    70  14  11 SW10G20   29.90F
PAGE           CLOUDY    74  24  15 VRB5      29.63F
$$

AZZ009>014-017-242300-
NORTHEAST ARIZONA

CITY           SKY/WX    TMP DP  RH WIND       PRES   REMARKS
WINSLOW        PTSUNNY   75  14  10 SW30G38   29.76F
SAINT JOHNS    CLOUDY    76  11   8 SW32G44   29.80F
WINDOW ROCK    PTSUNNY   69  18  14 SW29G40   29.80F
SHOW LOW       CLOUDY    64  14  14 SW29G35   29.88F
$$

AZZ540-542>544-546-548-242300-
GREATER PHOENIX AREA

CITY           SKY/WX    TMP DP  RH WIND       PRES   REMARKS
PHOENIX        CLOUDY    91  22   8 W17G26    29.67F
BUCKEYE        CLOUDY    88  21   8 SW14G20   29.68F
GLENDALE       PTSUNNY   90  10   5 SW15      29.69F
LUKE AFB       CLOUDY    89  17   7 SW20      29.67F
DEER VALLEY    CLOUDY    86  18   8 SW13      29.69F
SCOTTSDALE     CLOUDY    88  21   8 SW7G17    29.71F
MESA-FALCON    PTSUNNY  N/A N/A N/A W17G23    29.70
MESA-GATEWAY   PTSUNNY   90  27  10 W10G20    29.71F
CHANDLER       SUNNY     91  21   8 W14G23    29.69F
$$

AZZ539-553-242300-
SOUTHWEST MARICOPA COUNTY AND PINAL COUNTY

CITY           SKY/WX    TMP DP  RH WIND       PRES   REMARKS
CASA GRANDE    PTSUNNY   91  27  10 W18G24    29.69F
GILA BEND      MOSUNNY   93  20   7 SW16G24   29.67F
$$

AZZ503-504-507>509-242300-
SOUTHEAST ARIZONA

CITY           SKY/WX    TMP DP  RH WIND       PRES   REMARKS
TUCSON         PTSUNNY   92  20   7 W16G25    29.78F
DAVIS-MONTHAN  PTSUNNY   91  19   7 W14G24    29.77F
RYAN FIELD     SUNNY     91  19   7 W16G29    29.77F
NOGALES        SUNNY     87  17   7 SW24G33   29.87F
SIERRA VISTA   SUNNY     82  18   9 W22G29    29.91F
DOUGLAS        SUNNY     88  14   6 W25G40    29.86F
SAFFORD        MOSUNNY   92  17   6 W21G30    29.71F
$$

AZZ532-242300-
SOUTHWEST ARIZONA

CITY           SKY/WX    TMP DP  RH WIND       PRES   REMARKS
YUMA           CLOUDY    91  23   8 W9        29.68F
$$

CAZ041-043-047-048-061-525>527-560>570-242300-
SOUTHERN CALIFORNIA

CITY           SKY/WX    TMP DP  RH WIND       PRES   REMARKS
DOWNTOWN L.A.  SUNNY     70  53  54 VRB6      29.91F
L.A. AIRPORT   PTSUNNY   67  54  63 W15       29.93S
SAN DIEGO      PTSUNNY   67  53  61 S13       29.95F
BURBANK        SUNNY     70  50  49 S13G18    29.90F
ONTARIO        CLOUDY    69  52  54 SW15      29.89F
RIVERSIDE      PTSUNNY   71  53  52 W7G17     29.88F
PALM SPRINGS   MOSUNNY   89  44  20 NW10G21   29.69F
EL CENTRO NAS  CLOUDY    89  42  19 W29G38    29.69F
IMPERIAL       CLOUDY    88  49  25 W21G31    29.66F
BLYTHE         CLOUDY    90  32  12 W7        29.65F
NEEDLES        MOSUNNY   91  28  10 W16G26    29.63F
$$

NVZ020-UTZ003-242300-
SOUTHERN NEVADA-UTAH

CITY           SKY/WX    TMP DP  RH WIND       PRES   REMARKS
LAS VEGAS      PTSUNNY   84  23  10 VRB3      29.62F
SALT LAKE CITY LGT RAIN  49  42  77 N9        29.73S
$$

NMZ009-TXZ055-242300-
NEW MEXICO-WEST TEXAS

CITY           SKY/WX    TMP DP  RH WIND       PRES   REMARKS
ALBUQUERQUE    CLOUDY    80  12   7 W22G31    29.70F
EL PASO        MOSUNNY   91   3   3 W25G33    29.73F
$$


........................KEY........................
SKY/WX - SKY CONDITION/WEATHER
TMP    - TEMPERATURE IN FAHRENHEIT
DP     - DEW POINT IN FAHRENHEIT
RH     - RELATIVE HUMIDITY IN PERCENT
WIND   - DIRECTION AND SPEED IN MILES PER HOUR (MPH)
VRB    - VARIABLE WIND DIRECTION
PRES   - MEAN SEA LEVEL PRESSURE IN INCHES OF MERCURY
         F - FALLING PRESSURE   R - RISING PRESSURE
         S - STEADY PRESSURE
VSB    - VISIBILITY IN MILES
HX     - HEAT INDEX IN FAHRENHEIT
WCI    - WIND CHILL INDEX IN FAHRENHEIT
TC     - TEMPERATURE IN CELSIUS WHICH IS ALSO KNOWN AS
         TEMPERATURE IN CENTIGRADE
AFB    - AIR FORCE BASE
         LUKE AFB IS LUKE AIR FORCE BASE
         DAVIS-MONTHAN IS DAVIS-MONTHAN AIR FORCE BASE
NAS    - NAVAL AIR STATION
         EL CENTRO NAS IS EL CENTRO NAVAL AIR STATION
N/A    - NOT AVAILABLE




USA.gov is the U.S. government's official web portal to all federal, state and local government web resources and services.